• In Deutschland
  • Länderverzeichnis
  • Für 7 Tage
  • Wassertemperatur
  • Satellitenkarten
  • Wetterkarte
  • Widgets
  • user-avatar
    Anmelden

    Stündliche Wetter Sindelfingen

    Heute, 19 Oktober, Donnerstag

    Zeit Temperatur Niederschläge Wind Luftdruck Luftfeuchtigkeit
    00:00 +11°C° 0 mm 1 m/S 720 mmHg 72%
    01:00 +11°C° 0 mm 1 m/S 720 mmHg 72%
    02:00 +11°C° 0 mm 1 m/S 720 mmHg 71%
    03:00 +11°C° 0 mm 1 m/S 720 mmHg 70%
    04:00 +11°C° 0 mm 1 m/S 720 mmHg 69%
    05:00 +11°C° 0 mm 1 m/S 720 mmHg 68%
    06:00 +11°C° 0 mm 1 m/S 720 mmHg 66%
    07:00 +11°C° 0 mm 1 m/S 720 mmHg 65%
    08:00 +13°C° 0 mm 1 m/S 720 mmHg 62%
    09:00 +15°C° 0 mm 1 m/S 720 mmHg 58%
    10:00 +18°C° 0 mm 1 m/S 721 mmHg 55%
    11:00 +19°C° 0 mm 1 m/S 721 mmHg 52%
    12:00 +21°C° 0 mm 1 m/S 721 mmHg 48%
    13:00 +22°C° 0 mm 1 m/S 721 mmHg 44%
    14:00 +22°C° 0 mm 1 m/S 720 mmHg 49%
    15:00 +21°C° 0 mm 1 m/S 720 mmHg 53%
    16:00 +21°C° 0 mm 1 m/S 720 mmHg 57%
    17:00 +19°C° 0 mm 1 m/S 720 mmHg 62%
    18:00 +16°C° 0 mm 1 m/S 720 mmHg 67%
    19:00 +14°C° 0 mm 1 m/S 720 mmHg 73%
    20:00 +13°C° 0 mm 1 m/S 720 mmHg 74%
    21:00 +13°C° 0 mm 1 m/S 720 mmHg 75%
    22:00 +12°C° 0 mm 1 m/S 720 mmHg 77%
    23:00 +12°C° 0 mm 1 m/S 720 mmHg 77%

    Morgen, 20 Oktober, Freitag

    Zeit Temperatur Niederschläge Wind Luftdruck Luftfeuchtigkeit
    00:00 +12°C° 0 mm 1 m/S 720 mmHg 77%
    01:00 +11°C° 0 mm 1 m/S 720 mmHg 77%
    02:00 +11°C° 0 mm 1 m/S 720 mmHg 78%
    03:00 +11°C° 0 mm 1 m/S 720 mmHg 78%
    04:00 +10°C° 0 mm 1 m/S 720 mmHg 79%
    05:00 +10°C° 0 mm 1 m/S 720 mmHg 79%
    06:00 +10°C° 0 mm 1 m/S 720 mmHg 79%
    07:00 +10°C° 0 mm 1 m/S 720 mmHg 78%
    08:00 +12°C° 0 mm 1 m/S 721 mmHg 72%
    09:00 +14°C° 0 mm 1 m/S 721 mmHg 66%
    10:00 +16°C° 0 mm 1 m/S 722 mmHg 60%
    11:00 +17°C° 0 mm 2 m/S 722 mmHg 59%
    12:00 +18°C° 0 mm 2 m/S 722 mmHg 57%
    13:00 +18°C° 0 mm 2 m/S 722 mmHg 56%
    14:00 +18°C° 0,1 mm 2 m/S 722 mmHg 61%
    15:00 +17°C° 0,1 mm 2 m/S 722 mmHg 66%
    16:00 +17°C° 0,1 mm 2 m/S 722 mmHg 70%
    17:00 +15°C° 0 mm 2 m/S 722 mmHg 76%
    18:00 +14°C° 0 mm 2 m/S 722 mmHg 81%
    19:00 +13°C° 0 mm 1 m/S 722 mmHg 87%
    20:00 +12°C° 0 mm 1 m/S 723 mmHg 87%
    21:00 +12°C° 0 mm 1 m/S 723 mmHg 88%
    22:00 +12°C° 0 mm 1 m/S 723 mmHg 89%
    23:00 +12°C° 0 mm 1 m/S 723 mmHg 89%

    übermorgen, 21 Oktober, Samstag

    Zeit Temperatur Niederschläge Wind Luftdruck Luftfeuchtigkeit
    00:00 +11°C° 0 mm 1 m/S 723 mmHg 89%
    01:00 +11°C° 0 mm 1 m/S 722 mmHg 90%
    02:00 +10°C° 0 mm 2 m/S 722 mmHg 88%
    03:00 +12°C° 0 mm 2 m/S 722 mmHg 87%
    04:00 +12°C° 0 mm 2 m/S 722 mmHg 86%
    05:00 +12°C° 0 mm 2 m/S 722 mmHg 84%
    06:00 +12°C° 0 mm 2 m/S 722 mmHg 83%
    07:00 +13°C° 0 mm 2 m/S 722 mmHg 81%
    08:00 +13°C° 0 mm 3 m/S 722 mmHg 76%
    09:00 +14°C° 0 mm 3 m/S 722 mmHg 71%
    10:00 +17°C° 0 mm 4 m/S 722 mmHg 66%
    11:00 +18°C° 0 mm 4 m/S 722 mmHg 63%
    12:00 +19°C° 0 mm 4 m/S 722 mmHg 59%
    13:00 +20°C° 0 mm 4 m/S 722 mmHg 56%
    14:00 +18°C° 0,1 mm 4 m/S 722 mmHg 63%
    15:00 +17°C° 0,1 mm 4 m/S 722 mmHg 71%
    16:00 +16°C° 0,1 mm 3 m/S 722 mmHg 78%
    17:00 +14°C° 0,5 mm 3 m/S 722 mmHg 82%
    18:00 +13°C° 0,5 mm 3 m/S 722 mmHg 86%
    19:00 +12°C° 0,5 mm 3 m/S 723 mmHg 90%
    20:00 +11°C° 0,8 mm 3 m/S 723 mmHg 90%
    21:00 +11°C° 0,8 mm 3 m/S 723 mmHg 89%
    22:00 +10°C° 0,8 mm 3 m/S 723 mmHg 89%
    23:00 +10°C° 0,3 mm 3 m/S 724 mmHg 89%

    22 Oktober, Sonntag

    Zeit Temperatur Niederschläge Wind Luftdruck Luftfeuchtigkeit
    00:00 +10°C° 0,3 mm 4 m/S 724 mmHg 89%
    01:00 +8°C° 0,3 mm 4 m/S 724 mmHg 88%
    02:00 +8°C° 0 mm 4 m/S 723 mmHg 89%
    03:00 +8°C° 0 mm 3 m/S 723 mmHg 89%
    04:00 +8°C° 0 mm 3 m/S 723 mmHg 89%
    05:00 +7°C° 0 mm 3 m/S 723 mmHg 90%
    06:00 +7°C° 0 mm 3 m/S 723 mmHg 90%
    07:00 +5°C° 0 mm 3 m/S 723 mmHg 90%
    08:00 +6°C° 0 mm 4 m/S 723 mmHg 86%
    09:00 +7°C° 0 mm 4 m/S 724 mmHg 82%
    10:00 +7°C° 0 mm 5 m/S 724 mmHg 77%
    11:00 +8°C° 0,2 mm 5 m/S 724 mmHg 74%
    12:00 +8°C° 0,2 mm 5 m/S 724 mmHg 71%
    13:00 +9°C° 0,2 mm 5 m/S 724 mmHg 68%
    14:00 +9°C° 0,2 mm 5 m/S 724 mmHg 68%
    15:00 +8°C° 0,2 mm 4 m/S 724 mmHg 69%
    16:00 +8°C° 0,2 mm 4 m/S 723 mmHg 70%
    17:00 +7°C° 0,1 mm 4 m/S 724 mmHg 74%
    18:00 +7°C° 0,1 mm 4 m/S 724 mmHg 78%
    19:00 +7°C° 0,1 mm 3 m/S 724 mmHg 82%
    20:00 +6°C° 0,2 mm 4 m/S 724 mmHg 84%
    21:00 +6°C° 0,2 mm 4 m/S 724 mmHg 85%
    22:00 +5°C° 0,2 mm 4 m/S 725 mmHg 87%
    23:00 +5°C° 0,2 mm 4 m/S 725 mmHg 87%

    23 Oktober, Montag

    Zeit Temperatur Niederschläge Wind Luftdruck Luftfeuchtigkeit
    00:00 +5°C° 0,2 mm 4 m/S 725 mmHg 88%
    01:00 +5°C° 0,2 mm 5 m/S 725 mmHg 89%
    02:00 +5°C° 0,3 mm 5 m/S 725 mmHg 89%
    03:00 +5°C° 0,3 mm 5 m/S 725 mmHg 90%
    04:00 +5°C° 0,3 mm 5 m/S 725 mmHg 91%
    05:00 +5°C° 0,3 mm 5 m/S 725 mmHg 91%
    06:00 +5°C° 0,3 mm 4 m/S 725 mmHg 91%
    07:00 +5°C° 0,3 mm 4 m/S 726 mmHg 91%
    08:00 +6°C° 0,1 mm 5 m/S 726 mmHg 89%
    09:00 +6°C° 0,1 mm 5 m/S 727 mmHg 88%
    10:00 +7°C° 0,1 mm 5 m/S 727 mmHg 86%
    11:00 +7°C° 0,1 mm 5 m/S 727 mmHg 84%
    12:00 +8°C° 0,1 mm 4 m/S 727 mmHg 82%
    13:00 +8°C° 0,1 mm 4 m/S 727 mmHg 81%
    14:00 +8°C° 0,1 mm 4 m/S 727 mmHg 82%
    15:00 +8°C° 0,1 mm 4 m/S 727 mmHg 83%
    16:00 +9°C° 0,1 mm 3 m/S 727 mmHg 84%
    17:00 +8°C° 0 mm 3 m/S 728 mmHg 86%
    18:00 +8°C° 0 mm 3 m/S 728 mmHg 87%
    19:00 +8°C° 0 mm 2 m/S 728 mmHg 88%
    20:00 +8°C° 0 mm 2 m/S 728 mmHg 89%
    21:00 +7°C° 0 mm 2 m/S 728 mmHg 89%
    22:00 +7°C° 0 mm 2 m/S 728 mmHg 90%
    23:00 +6°C° 0 mm 2 m/S 728 mmHg 91%

    24 Oktober, Dienstag

    Zeit Temperatur Niederschläge Wind Luftdruck Luftfeuchtigkeit
    00:00 +7°C° 0 mm 1 m/S 728 mmHg 91%
    01:00 +7°C° 0 mm 1 m/S 728 mmHg 91%
    02:00 +7°C° 0 mm 1 m/S 728 mmHg 91%
    03:00 +6°C° 0 mm 1 m/S 728 mmHg 91%
    04:00 +6°C° 0 mm 1 m/S 728 mmHg 90%
    05:00 +6°C° 0 mm 1 m/S 728 mmHg 89%
    06:00 +7°C° 0 mm 1 m/S 728 mmHg 88%
    07:00 +7°C° 0 mm 1 m/S 728 mmHg 87%
    08:00 +8°C° 0 mm 1 m/S 728 mmHg 81%
    09:00 +10°C° 0 mm 1 m/S 729 mmHg 75%
    10:00 +11°C° 0 mm 0 m/S 729 mmHg 69%
    11:00 +12°C° 0 mm 0 m/S 729 mmHg 65%
    12:00 +14°C° 0 mm 0 m/S 728 mmHg 60%
    13:00 +15°C° 0 mm 0 m/S 728 mmHg 55%
    14:00 +15°C° 0 mm 0 m/S 728 mmHg 59%
    15:00 +14°C° 0 mm 0 m/S 728 mmHg 62%
    16:00 +14°C° 0 mm 0 m/S 728 mmHg 65%
    17:00 +14°C° 0 mm 1 m/S 728 mmHg 69%
    18:00 +12°C° 0 mm 1 m/S 728 mmHg 74%
    19:00 +10°C° 0 mm 1 m/S 728 mmHg 79%
    20:00 +10°C° 0 mm 1 m/S 728 mmHg 80%
    21:00 +10°C° 0 mm 1 m/S 728 mmHg 81%
    22:00 +9°C° 0 mm 1 m/S 728 mmHg 83%
    23:00 +9°C° 0 mm 1 m/S 728 mmHg 83%
    Mehr zeigen